Regional Weather Roundup
Issued by NWS

Home | Current Version | Previous Version | Graphics & Text | Print | Product List | Glossary On
Versions: 1 2 3 4 5 6 7 8 9 10 11 12 13 14 15 16 17 18 19 20 21 22 23 24 25 26 27 28 29 30 31 32 33 34 35 36 37 38 39 40 41 42 43 44 45 46 47 48 49 50
000
ASUS45 KPSR 210510
RWRAZ

ARIZONA REGIONAL HOURLY WEATHER ROUNDUP
NATIONAL WEATHER SERVICE PHOENIX AZ
1000 PM MST SAT DEC 20 2014

NOTE: FAIR INDICATES FEW OR NO CLOUDS BELOW 12,000 FEET WITH NO
SIGNIFICANT WEATHER AND/OR OBSTRUCTIONS TO VISIBILITY.

AZZ001>003-036-210600-
NORTHWEST ARIZONA

CITY           SKY/WX    TMP DP  RH WIND       PRES   REMARKS
BULLHEAD CITY  CLEAR     52  41  66 E3        30.16R
KINGMAN        PTCLDY    36  32  85 CALM      30.17R
$$

AZZ004>008-015-016-018-210600-
NORTH CENTRAL ARIZONA

CITY           SKY/WX    TMP DP  RH WIND       PRES   REMARKS
GRAND CANYON   MOCLDY    28  24  85 CALM      30.16R
PRESCOTT       CLOUDY    37  27  67 S5        30.15R WCI  33
FLAGSTAFF      MOCLDY    28  22  78 CALM      30.15S
PAYSON         CLOUDY    37  32  81 CALM      30.17R
PAGE             N/A     37  29  72 CALM      30.15R
$$

AZZ009>014-017-210600-
NORTHEAST ARIZONA

CITY           SKY/WX    TMP DP  RH WIND       PRES   REMARKS
WINSLOW        FOG       29  28  96 W5        30.17S VSB 1/4 WCI  24
SAINT JOHNS    PTCLDY    34  26  72 S5        30.12S WCI  30
WINDOW ROCK    PTCLDY    30  24  78 CALM      30.12F
SHOW LOW       MOCLDY    32  21  64 S8        30.16F WCI  25
$$

AZZ023-210600-
GREATER PHOENIX AREA

CITY           SKY/WX    TMP DP  RH WIND       PRES   REMARKS
PHOENIX        CLOUDY    56  42  59 CALM      30.09S
BUCKEYE          N/A     48  48 100 NW3       30.12S
LUKE AFB       CLOUDY    50  46  85 N6        30.10S
DEER VALLEY    CLOUDY    51  41  68 NE6       30.10R
SCOTTSDALE     CLOUDY    53  41  63 CALM      30.11F
MESA-GATEWAY   MOCLDY    48  43  81 SE3       30.12S
$$

AZZ027-028-210600-
SOUTHWEST MARICOPA COUNTY AND PINAL COUNTY

CITY           SKY/WX    TMP DP  RH WIND       PRES   REMARKS
CASA GRANDE    CLOUDY    48  41  76 CALM      30.12R
GILA BEND      FAIR      51  43  73 S3        30.13R
$$

AZZ503-504-507>509-210600-
SOUTHEAST ARIZONA

CITY           SKY/WX    TMP DP  RH WIND       PRES   REMARKS
TUCSON         CLOUDY    48  39  71 VRB3      30.14S
DAVIS-MONTHAN  MOCLDY    45  40  83 S3        30.12S
NOGALES        MOCLDY    40  30  67 E3        30.13F
SIERRA VISTA   MOCLDY    44  29  55 S9        30.13F
DOUGLAS        MOCLDY    35  26  69 VRB3      30.14R
SAFFORD        MOCLDY    41  37  86 E6        30.12R
$$

AZZ020-021-025-026-031-210600-
SOUTHWEST ARIZONA

CITY           SKY/WX    TMP DP  RH WIND       PRES   REMARKS
YUMA           MOCLDY   N/A N/A N/A CALM      30.11F
$$

CAZ031-033-041-043-047-048-061-210600-
SOUTHERN CALIFORNIA

CITY           SKY/WX    TMP DP  RH WIND       PRES   REMARKS
DOWNTOWN L.A.  CLOUDY    58  48  69 E3        30.15R
L.A. AIRPORT   CLOUDY    57  51  80 E7        30.15R
SAN DIEGO      MOCLDY    63  53  70 CALM      30.18S
BURBANK        CLOUDY    57  47  69 CALM      30.14S
ONTARIO        CLOUDY    52  46  80 CALM      30.16R
RIVERSIDE      CLOUDY    51  47  86 NE5       30.16S FOG
PALM SPRINGS   PTCLDY    54  43  66 S6        30.15R
EL CENTRO NAS  CLEAR     53  42  66 CALM      30.12F
IMPERIAL       CLEAR     50  43  77 SW3       30.11F
BLYTHE         CLEAR     51  47  86 N3        30.13R
NEEDLES        CLEAR     52  41  66 W10       30.14R
$$

NVZ020-UTZ003-210600-
SOUTHERN NEVADA-UTAH

CITY           SKY/WX    TMP DP  RH WIND       PRES   REMARKS
LAS VEGAS      PTCLDY    49  37  63 S9        30.12R
SALT LAKE CITY CLOUDY    41  35  79 SE8       30.05F
$$

NMZ009-TXZ055-210600-
NEW MEXICO-WEST TEXAS

CITY           SKY/WX    TMP DP  RH WIND       PRES   REMARKS
ALBUQUERQUE    CLOUDY    34  26  72 CALM      30.10R
EL PASO        PTCLDY    43  28  55 SE6       30.10F
$$


........................KEY........................
SKY/WX - SKY CONDITION/WEATHER
TMP    - TEMPERATURE IN FAHRENHEIT
DP     - DEW POINT IN FAHRENHEIT
RH     - RELATIVE HUMIDITY IN PERCENT
WIND   - DIRECTION AND SPEED IN MILES PER HOUR (MPH)
VRB    - VARIABLE WIND DIRECTION
PRES   - MEAN SEA LEVEL PRESSURE IN INCHES OF MERCURY
         F - FALLING PRESSURE   R - RISING PRESSURE
         S - STEADY PRESSURE
VSB    - VISIBILITY IN MILES
HX     - HEAT INDEX IN FAHRENHEIT
WCI    - WIND CHILL INDEX IN FAHRENHEIT
TC     - TEMPERATURE IN CELSIUS WHICH IS ALSO KNOWN AS
         TEMPERATURE IN CENTIGRADE
AFB    - AIR FORCE BASE
         LUKE AFB IS LUKE AIR FORCE BASE
         DAVIS-MONTHAN IS DAVIS-MONTHAN AIR FORCE BASE
NAS    - NAVAL AIR STATION
         EL CENTRO NAS IS EL CENTRO NAVAL AIR STATION
N/A    - NOT AVAILABLE


USA.gov is the U.S. government's official web portal to all federal, state and local government web resources and services.